Tracking 29089 objects as of 12-Jul-2024
HD Live streaming from Space Station
objects crossing your sky now

ATLAS 5 CENTAUR DEB

Track ATLAS 5 CENTAUR DEB now!


NORAD ID: 44896
Int'l Code: 2018-079BP
Perigee: 7,972.6 km
Apogee: 32,384.2 km
Inclination: 12.9 °
Period: 717.5 minutes
Semi major axis: 26549 km
RCS: Unknown
Launch date: October 17, 2018
Source: United States (US)
Launch site: AIR FORCE EASTERN TEST RANGE (AFETR)

Note: This is SATELLITE DEBRIS
Your satellite tracking list
Your tracking list is empty




NASA's NSSDC Master Catalog

Two Line Element Set (TLE):
1 44896U 18079BK  24190.93767926 -.00000138  00000-0  00000-0 0  9994
2 44896  12.9396  58.3764 4597392 275.9873  35.1453  2.00687525 33480
Source of the keplerian elements: AFSPC